This is the latest recevied weather packets stored in our database for station/object HS5BOG-13. If no packets are shown the sender has not sent any weather packets the latest 10 day(s).
| Time | Temp. | Humidity | Pressure | Rain* | Wind** | Luminosity | Snow |
|---|---|---|---|---|---|---|---|
| 1778128050 | 31.67° C | 69% | 991.2 hPa | - | - | - | - |
| 1778127444 | 31.11° C | 71% | 991.5 hPa | - | - | - | - |
| 1778126839 | 31.11° C | 71% | 991.4 hPa | - | - | - | - |
| 1778126233 | 31.11° C | 71% | 991.6 hPa | - | - | - | - |
| 1778125628 | 31.11° C | 74% | 991.6 hPa | - | - | - | - |
| 1778125022 | 30.56° C | 73% | 991.7 hPa | - | - | - | - |
| 1778124416 | 30.56° C | 75% | 991.7 hPa | - | - | - | - |
| 1778123811 | 30.56° C | 76% | 991.9 hPa | - | - | - | - |
| 1778123205 | 30.56° C | 76% | 991.9 hPa | - | - | - | - |
| 1778122599 | 30.56° C | 78% | 992 hPa | - | - | - | - |
| 1778121994 | 30.56° C | 79% | 992.1 hPa | - | - | - | - |
| 1778121388 | 30.56° C | 79% | 992.3 hPa | - | - | - | - |
| 1778120783 | 30° C | 80% | 992.4 hPa | - | - | - | - |
| 1778120177 | 30° C | 79% | 992.4 hPa | - | - | - | - |
| 1778119572 | 29.44° C | 83% | 992.4 hPa | - | - | - | - |
| 1778118966 | 30° C | 84% | 992.4 hPa | - | - | - | - |
| 1778118360 | 30° C | 85% | 992.4 hPa | - | - | - | - |
| 1778117755 | 29.44° C | 87% | 992.4 hPa | - | - | - | - |
| 1778117149 | 29.44° C | 89% | 992.4 hPa | - | - | - | - |
| 1778116543 | 29.44° C | 90% | 992.3 hPa | - | - | - | - |
| 1778115938 | 29.44° C | 90% | 992.4 hPa | - | - | - | - |
| 1778115332 | 29.44° C | 90% | 992.3 hPa | - | - | - | - |
| 1778114727 | 29.44° C | 88% | 992.4 hPa | - | - | - | - |
| 1778114121 | 29.44° C | 88% | 992.3 hPa | - | - | - | - |
| 1778113516 | 29.44° C | 86% | 992 hPa | - | - | - | - |
* Rain since midnight (hover to see other rain measurements)
** Current wind speed in m/s (hover to see current wind gust speed)